GW4389 Weather Reports


Display with metric or nautical units.
time (UTC)temp
F
wind
direction
speed
MPH
gust
MPH
rain 1hr
in
rain 24hr
in
rain mn
in
humidity
%
barometer
mb
20260505005952 66 354 10.0 13.0 0.00 0.00 0.00 24 1012.0
20260505005448 66 291 5.0 7.0 0.00 0.00 0.00 24 1011.5
20260505004946 67 294 4.0 6.0 0.00 0.00 0.00 24 1011.9
20260505004443 66 261 3.0 3.0 0.00 0.00 0.00 24 1011.7
20260505003940 67 269 6.0 7.0 0.00 0.00 0.00 27 1011.8
20260505003437 65 182 2.0 4.0 0.00 0.00 0.00 29 1012.0
20260505002933 65 213 11.0 14.0 0.00 0.00 0.00 30 1012.0
20260505002429 63 224 11.0 15.0 0.00 0.00 0.00 33 1011.8
20260505001928 63 223 6.0 8.0 0.00 0.00 0.00 32 1011.8
20260505001425 64 277 9.0 15.0 0.00 0.00 0.00 33 1011.9
20260505000922 64 284 10.0 15.0 0.00 0.00 0.00 33 1012.1
20260505000420 64 262 7.0 8.0 0.00 0.00 0.00 32 1012.3
20260504235916 65 173 5.0 7.0 0.00 0.00 0.00 31 1012.0
20260504235414 64 218 9.0 11.0 0.00 0.00 0.00 31 1012.1
20260504234910 65 194 7.0 8.0 0.00 0.00 0.00 31 1012.0
20260504234408 65 213 4.0 4.0 0.00 0.00 0.00 24 1011.8
20260504233904 64 170 0.0 0.0 0.00 0.00 0.00 25 1011.9
20260504233359 65 214 3.0 3.0 0.00 0.00 0.00 24 1012.1
20260504232856 65 260 4.0 4.0 0.00 0.00 0.00 23 1011.9
20260504232354 65 2 7.0 9.0 0.00 0.00 0.00 24 1012.1
20260504231850 64 328 4.0 6.0 0.00 0.00 0.00 25 1011.8
20260504231347 65 324 5.0 6.0 0.00 0.00 0.00 24 1011.8
20260504230843 65 258 5.0 7.0 0.00 0.00 0.00 23 1011.9
20260504230341 66 339 1.0 2.0 0.00 0.00 0.00 21 1011.9
20260504225839 68 234 5.0 8.0 0.00 0.00 0.00 21 1011.7
20260504225335 67 289 7.0 8.0 0.00 0.00 0.00 22 1011.9
20260504224833 65 258 3.0 4.0 0.00 0.00 0.00 24 1011.8
20260504224330 65 279 3.0 6.0 0.00 0.00 0.00 23 1011.9
20260504223827 65 273 2.0 3.0 0.00 0.00 0.00 23 1012.0
20260504223322 66 285 6.0 7.0 0.00 0.00 0.00 22 1011.9
20260504222819 65 280 7.0 9.0 0.00 0.00 0.00 23 1011.9
20260504222316 65 296 9.0 10.0 0.00 0.00 0.00 23 1011.9
20260504221814 66 297 11.0 15.0 0.00 0.00 0.00 23 1012.1
20260504221310 68 311 9.0 13.0 0.00 0.00 0.00 22 1011.9
20260504220808 66 186 2.0 3.0 0.00 0.00 0.00 22 1012.1
20260504220304 66 257 4.0 4.0 0.00 0.00 0.00 21 1012.3
20260504215802 67 285 6.0 8.0 0.00 0.00 0.00 19 1012.0
20260504215258 68 252 3.0 4.0 0.00 0.00 0.00 19 1012.3
20260504214754 68 288 6.0 7.0 0.00 0.00 0.00 19 1012.3
20260504214251 68 216 2.0 2.0 0.00 0.00 0.00 19 1012.4
20260504213747 68 257 12.0 15.0 0.00 0.00 0.00 19 1012.3
20260504213243 67 322 2.0 3.0 0.00 0.00 0.00 20 1012.9
20260504212741 68 283 5.0 8.0 0.00 0.00 0.00 20 1012.6
20260504212237 69 196 1.0 2.0 0.00 0.00 0.00 21 1012.7
20260504211735 69 175 2.0 3.0 0.00 0.00 0.00 20 1012.6
20260504211231 69 278 8.0 10.0 0.00 0.00 0.00 20 1012.6
20260504210728 68 276 7.0 9.0 0.00 0.00 0.00 20 1012.7
20260504210225 67 287 6.0 6.0 0.00 0.00 0.00 20 1013.0
20260504205722 66 291 3.0 6.0 0.00 0.00 0.00 21 1012.9
20260504205220 67 281 10.0 13.0 0.00 0.00 0.00 20 1013.1
20260504204718 66 335 10.0 13.0 0.00 0.00 0.00 20 1013.0
20260504204216 66 194 3.0 4.0 0.00 0.00 0.00 20 1013.1
20260504203715 68 282 9.0 13.0 0.00 0.00 0.00 20 1013.1
20260504203212 67 10 5.0 7.0 0.00 0.00 0.00 20 1013.4
20260504202712 68 275 9.0 13.0 0.00 0.00 0.00 20 1013.0
20260504202209 67 300 8.0 10.0 0.00 0.00 0.00 20 1013.2
20260504201706 67 273 8.0 11.0 0.00 0.00 0.00 21 1013.2
20260504201204 68 292 12.0 14.0 0.00 0.00 0.00 21 1013.2
20260504200701 68 239 1.0 2.0 0.00 0.00 0.00 19 1013.4
20260504200157 66 294 3.0 4.0 0.00 0.00 0.00 21 1013.4
20260504195653 66 10 4.0 6.0 0.00 0.00 0.00 21 1013.5
20260504195149 68 200 6.0 7.0 0.00 0.00 0.00 20 1013.5
20260504194646 68 136 0.0 1.0 0.00 0.00 0.00 20 1013.6
20260504194142 66 289 5.0 7.0 0.00 0.00 0.00 21 1013.6
20260504193639 65 280 4.0 4.0 0.00 0.00 0.00 21 1013.7
20260504193137 67 251 4.0 6.0 0.00 0.00 0.00 20 1014.0
20260504192635 68 196 1.0 1.0 0.00 0.00 0.00 21 1014.0
20260504192133 67 234 3.0 3.0 0.00 0.00 0.00 22 1014.0
20260504191631 67 230 2.0 3.0 0.00 0.00 0.00 20 1013.8
20260504191127 68 235 4.0 4.0 0.00 0.00 0.00 20 1014.1
20260504190623 67 197 5.0 7.0 0.00 0.00 0.00 21 1014.1
20260504190120 67 7 0.0 0.0 0.00 0.00 0.00 19 1014.2
20260504185616 67 294 8.0 9.0 0.00 0.00 0.00 20 1014.5
20260504185113 66 15 4.0 6.0 0.00 0.00 0.00 20 1014.3
20260504184609 66 12 5.0 7.0 0.00 0.00 0.00 20 1014.3
20260504184104 67 305 2.0 4.0 0.00 0.00 0.00 20 1014.3
20260504183601 65 355 1.0 2.0 0.00 0.00 0.00 21 1014.3
20260504183059 66 301 1.0 3.0 0.00 0.00 0.00 22 1014.6
20260504182556 66 2 3.0 4.0 0.00 0.00 0.00 21 1014.7
20260504182053 64 51 0.0 0.0 0.00 0.00 0.00 21 1014.9
20260504181550 63 286 1.0 1.0 0.00 0.00 0.00 22 1014.9
20260504181048 66 342 3.0 4.0 0.00 0.00 0.00 22 1015.1
20260504180547 64 338 0.0 0.0 0.00 0.00 0.00 22 1015.1
20260504180046 64 287 3.0 3.0 0.00 0.00 0.00 21 1015.1
20260504175542 67 278 5.0 6.0 0.00 0.00 0.00 21 1015.2
20260504175039 68 275 0.0 1.0 0.00 0.00 0.00 22 1015.2
20260504174537 66 278 0.0 1.0 0.00 0.00 0.00 22 1015.2
20260504174034 66 113 1.0 1.0 0.00 0.00 0.00 21 1015.6
20260504173531 64 288 3.0 3.0 0.00 0.00 0.00 21 1015.3
20260504173028 64 275 3.0 4.0 0.00 0.00 0.00 22 1015.4
20260504172524 66 22 1.0 1.0 0.00 0.00 0.00 22 1015.3
20260504172021 64 151 3.0 4.0 0.00 0.00 0.00 23 1015.2
20260504171518 65 270 3.0 4.0 0.00 0.00 0.00 24 1015.4
20260504171015 63 276 2.0 2.0 0.00 0.00 0.00 23 1015.4
20260504170510 63 289 4.0 6.0 0.00 0.00 0.00 24 1015.6
20260504160425 61 238 4.0 4.0 0.00 0.00 0.00 28 1015.6
20260504150849 55 14 2.0 2.0 0.00 0.00 0.00 38 1016.2
20260504150346 54 21 1.0 2.0 0.00 0.00 0.00 38 1016.3
20260504141316 50 158 0.0 0.0 0.00 0.00 0.00 43 1016.7
20260504140812 47 148 0.0 0.0 0.00 0.00 0.00 45 1016.5
20260504140308 46 124 0.0 0.0 0.00 0.00 0.00 48 1016.5
20260504130737 46 222 7.0 9.0 0.00 0.00 0.00 45 1016.0
20260504130233 46 222 6.0 9.0 0.00 0.00 0.00 44 1015.8
20260504120156 39 208 0.0 0.0 0.00 0.00 0.00 55 1015.6
20260504110624 41 183 2.0 3.0 0.00 0.00 0.00 51 1015.7
20260504110120 41 212 4.0 6.0 0.00 0.00 0.00 51 1015.8
20260504100545 42 211 1.0 3.0 0.00 0.00 0.00 51 1015.8
20260504081939 42 226 0.0 1.0 0.00 0.00 0.00 48 1016.8
20260504081436 41 229 1.0 2.0 0.00 0.00 0.00 49 1016.8
20260504080932 40 223 1.0 3.0 0.00 0.00 0.00 52 1016.9
20260504080429 40 209 2.0 3.0 0.00 0.00 0.00 51 1016.9
20260504070357 40 217 3.0 6.0 0.00 0.00 0.00 52 1017.4
20260504050738 44 200 0.0 0.0 0.00 0.00 0.00 42 1017.6
20260504050235 45 185 0.0 0.0 0.00 0.00 0.00 41 1017.8
20260504045732 46 206 0.0 0.0 0.00 0.00 0.00 40 1017.6
20260504045227 46 211 0.0 0.0 0.00 0.00 0.00 39 1017.5
20260504044725 47 209 0.0 0.0 0.00 0.00 0.00 37 1017.8
20260504044223 48 194 0.0 0.0 0.00 0.00 0.00 36 1017.8
20260504043720 49 199 0.0 0.0 0.00 0.00 0.00 35 1017.8
20260504043216 49 198 0.0 0.0 0.00 0.00 0.00 34 1017.6
20260504042714 50 200 0.0 0.0 0.00 0.00 0.00 32 1017.9
20260504042210 52 215 0.0 0.0 0.00 0.00 0.00 31 1017.6
20260504041706 53 253 0.0 0.0 0.00 0.00 0.00 29 1017.8
20260504041202 53 225 0.0 0.0 0.00 0.00 0.00 29 1017.8
20260504040659 53 240 0.0 0.0 0.00 0.00 0.00 28 1017.9
20260504040156 53 278 1.0 1.0 0.00 0.00 0.00 28 1017.8
20260504035652 53 265 0.0 1.0 0.00 0.00 0.00 27 1017.8
20260504035150 54 225 0.0 0.0 0.00 0.00 0.00 28 1017.5
20260504034647 54 214 0.0 0.0 0.00 0.00 0.00 28 1017.5
20260504034144 53 285 0.0 0.0 0.00 0.00 0.00 28 1017.5
20260504033642 54 262 0.0 0.0 0.00 0.00 0.00 28 1017.5
20260504033139 55 211 0.0 0.0 0.00 0.00 0.00 28 1017.4
20260504032635 55 206 0.0 0.0 0.00 0.00 0.00 27 1017.4
20260504032133 55 211 0.0 1.0 0.00 0.00 0.00 26 1017.3
20260504031630 55 240 0.0 0.0 0.00 0.00 0.00 27 1017.4
20260504031126 55 259 0.0 1.0 0.00 0.00 0.00 27 1017.3
20260504030623 55 203 0.0 0.0 0.00 0.00 0.00 27 1017.1
20260504030120 56 225 0.0 0.0 0.00 0.00 0.00 27 1017.0
20260504025617 56 238 0.0 0.0 0.00 0.00 0.00 27 1017.1
20260504025113 56 195 0.0 0.0 0.00 0.00 0.00 27 1017.0
20260504024611 56 234 0.0 0.0 0.00 0.00 0.00 27 1017.1
20260504024107 57 271 0.0 0.0 0.00 0.00 0.00 26 1017.0
20260504023604 57 220 0.0 0.0 0.00 0.00 0.00 26 1017.0
20260504023100 57 215 0.0 0.0 0.00 0.00 0.00 26 1016.9
20260504022556 58 210 0.0 0.0 0.00 0.00 0.00 25 1016.9
20260504022052 59 283 0.0 1.0 0.00 0.00 0.00 25 1016.9
20260504021550 59 286 0.0 0.0 0.00 0.00 0.00 25 1016.8
20260504021047 59 301 1.0 2.0 0.00 0.00 0.00 25 1016.9
20260504020543 60 221 0.0 0.0 0.00 0.00 0.00 25 1016.9
20260504020040 60 226 0.0 2.0 0.00 0.00 0.00 24 1016.5
20260504015537 61 291 2.0 3.0 0.00 0.00 0.00 23 1016.9
20260504015032 61 256 4.0 6.0 0.00 0.00 0.00 23 1017.0
20260504014528 61 309 6.0 8.0 0.00 0.00 0.00 22 1016.9
20260504014026 61 302 4.0 6.0 0.00 0.00 0.00 23 1016.7
20260504013523 62 313 4.0 4.0 0.00 0.00 0.00 24 1016.9
20260504013020 62 271 3.0 4.0 0.00 0.00 0.00 23 1017.1
20260504012517 63 281 6.0 8.0 0.00 0.00 0.00 22 1016.9
20260504012015 63 300 6.0 8.0 0.00 0.00 0.00 21 1016.8
20260504011511 63 280 4.0 4.0 0.00 0.00 0.00 22 1016.9
20260504011007 64 280 3.0 7.0 0.00 0.00 0.00 21 1016.7
20260504010503 64 283 6.0 8.0 0.00 0.00 0.00 21 1016.9